Regional Weather Roundup
Issued by NWS

Home | Current Version | Previous Version | Text Only | Print | Product List | Glossary On
Versions: 1 2 3 4 5 6 7 8 9 10 11 12 13 14 15 16 17 18 19 20 21 22 23 24 25 26 27 28 29 30 31 32 33 34 35 36 37 38 39 40 41 42 43 44 45 46 47 48 49 50
000
ASUS44 KFWD 250115
RWRTX
NORTH TEXAS HOURLY WEATHER ROUNDUP
NATIONAL WEATHER SERVICE FORT WORTH TX
800 PM CDT WED AUG 24 2016

NOTE: "FAIR" INDICATES FEW OR NO CLOUDS BELOW 12,000 FEET WITH NO
SIGNIFICANT WEATHER AND/OR OBSTRUCTIONS TO VISIBILITY.

TXZ118-119-250200-
DALLAS/FORT WORTH METROPLEX

CITY           SKY/WX    TMP DP  RH WIND       PRES   REMARKS
DFW AIRPORT    PTCLDY    89  68  49 S13       30.01S HX  93
DALLAS LOVE    PTCLDY    90  68  48 S15       30.02R HX  94
FTW MEACHAM    CLEAR     90  69  50 SE15      30.00S HX  94
DAL-EXECUTIVE  CLEAR     87  70  56 S8        30.03R HX  92
FTW-ALLIANCE   PTCLDY    87  69  54 S13       30.00S HX  91
FTW-SPINKS     CLEAR     85  70  61 SE6       30.04R
ARLINGTON      CLEAR     87  69  54 SE12      30.02S HX  91
GRAND PRAIRIE  CLEAR     88  68  51 SE9       30.03S HX  91
ADDISON        PTCLDY    88  68  51 SE12G23   30.02S HX  91
MESQUITE       CLEAR     84  70  61 SE7       30.03F
LANCASTER      CLEAR     87  71  59 SE5       30.04S HX  92
$$

TXZ091>094-102>105-117-120-121-131>134-250200-
NORTH CENTRAL TEXAS

CITY           SKY/WX    TMP DP  RH WIND       PRES   REMARKS
SHRMAN/DENISON CLEAR     87  70  58 SE10      30.03R HX  92
GAINESVILLE      N/A     84  68  58 S9        30.02S
BOWIE          CLEAR     86  68  55 SE8       30.00S
BRIDGEPORT     CLEAR     86  70  58 S7        30.02R HX  90
DECATUR        CLEAR     86  66  52 SE9       30.01S
DENTON         CLEAR     86  70  58 SE14      30.00S HX  90
MCKINNEY       CLEAR     86  71  60 S10       30.02S HX  91
GREENVILLE     CLEAR     82  70  65 S7        30.04S
ROCKWALL       CLEAR     85  71  62 SE8       30.03S HX  91
TERRELL        CLEAR     85  73  67 SE6       30.04S HX  91
WAXAHACHIE     CLEAR     85  71  62 SE5       30.04S HX  90
CLEBURNE       CLEAR     86  72  62 SE9       30.05R HX  92
GRANBURY       CLEAR     90  69  50 SE9       30.02S HX  94
$$

TXZ083>090-098>101-113>116-127>130-139>142-154-155-250200-
WESTERN NORTH TEXAS

CITY           SKY/WX    TMP DP  RH WIND       PRES   REMARKS
WICHITA FALLS  CLEAR     89  66  46 S17       29.95S HX  91
WF-KICKAPOO    CLEAR     91  65  42 SE16      29.97R HX  92
VERNON         CLOUDY    82  58  43 N7        29.98R
ABILENE        CLEAR     86  66  51 S14       30.01S
ABILENE-DYESS  CLEAR     88  66  47 SE9       29.99R HX  91
CISCO          CLEAR     88  66  48 SE14G20   30.03S HX  90
BRECKENRIDGE   CLEAR     89  64  44 S9        29.99R HX  90
GRAHAM         CLEAR     87  67  51 SE8       29.98R HX  90
MINERAL WELLS  CLEAR     87  67  51 S9        29.99S HX  90
STEPHENVILLE   CLEAR     86  66  51 SE6       30.06S
COMANCHE       CLEAR     87  67  51 S8        30.02F
BROWNWOOD      CLEAR     86  66  51 SE12      30.02S
COLEMAN        CLEAR     87  63  43 SE8       30.03R
$$

TXZ143>147-156>162-174-175-250200-
CENTRAL TEXAS

CITY           SKY/WX    TMP DP  RH WIND       PRES   REMARKS
WACO           CLEAR     87  71  58 S8        30.03R HX  93
WACO-TSTC      CLEAR     86  72  62 SE5       30.03  HX  92
WACO-MCGREGOR  PTCLDY    88  71  57 SE7       30.03S HX  94
HILLSBORO      PTCLDY    85  70  59 SE9       30.03S HX  90
CORSICANA      CLOUDY    86  73  65 S6        30.05S HX  93
MEXIA          CLOUDY    84  72  67 CALM      30.04S HX  90
HEARNE         PTCLDY    86  73  66 CALM      30.04R HX  93
CAMERON        CLEAR     86  73  64 SE3       30.03R HX  93
TEMPLE         CLEAR     86  70  58 S8        30.04R HX  90
KILLEEN        CLEAR     83  69  64 SE7       30.04R
KILLEEN-SKYLRK CLEAR     86  71  60 SE9       30.04R HX  91
FORT HOOD      CLEAR     85  69  57 S7        30.02R
GATESVILLE     CLEAR     84  70  61 CALM      30.06R
HAMILTON       CLEAR     85  69  57 S9        30.05S
LAMPASAS       CLEAR     84  71  65 SE6       30.04S
$$

TXZ095>097-106>112-122>126-135>138-148>153-164>167-250200-
EAST TEXAS

CITY           SKY/WX    TMP DP  RH WIND       PRES   REMARKS
PARIS          CLEAR     84  70  61 S8        30.05S
SULPHUR SPRNGS CLEAR     87  71  59 S6        30.06F HX  92
MOUNT PLEASANT CLEAR     84  74  70 SE3       30.07S HX  91
GILMER         CLOUDY    85  76  74 S3        30.06S HX  93
TYLER          PTCLDY    86  76  71 SE5       30.06R HX  96
LONGVIEW       CLEAR     84  76  76 SE5       30.05S HX  93
MARSHALL       CLEAR     82  78  85 CALM      30.08F HX  91
ATHENS         CLEAR     82  72  69 CALM      30.04S
PALESTINE      PTCLDY    83  78  83 CALM      30.06R HX  93
JACKSONVILLE   CLEAR     85  75  74 CALM      30.10R HX  93
HENDERSON      CLEAR     84  74  73 CALM      30.08R HX  91
CENTER         CLEAR     85  80  86 CALM      30.07S HX  98
NACOGDOCHES    CLEAR    N/A N/A N/A SE5       30.05R
LUFKIN         CLEAR     84  75  74 S3        30.06R HX  92
$$

SUPPLEMENTAL OBSERVATIONS (CENTRAL)

CITY           SKY/WX    TMP DP  RH WIND       PRES   REMARKS
PAT MAYSE LAKE   N/A     86  70  58 SE8         N/A  HX  90
GREENVILLE       N/A     84  68  58 S3          N/A
CEDAR HILL       N/A     84  70  61 SE5         N/A
LAKE LIMESTONE   N/A     84  75  74 E2          N/A  HX  92
MCGREGOR         N/A     82  68  61 S6G14       N/A
TEMPLE           N/A     84  66  54 SE3G13      N/A
$$

SUPPLEMENTAL OBSERVATIONS (WEST)

CITY           SKY/WX    TMP DP  RH WIND       PRES   REMARKS
MILLERS CREEK    N/A     88  66  48 S13G22      N/A  HX  90
POSSUM KINGDOM   N/A     88  68  51 SE9G20      N/A  HX  91
GRANBURY         N/A     90  70  51 SE12        N/A  HX  95
COMANCHE         N/A     84  66  54 SE10        N/A
HAMBY            N/A     88  64  45 SE7G16      N/A
$$

SUPPLEMENTAL OBSERVATIONS (EAST)

CITY           SKY/WX    TMP DP  RH WIND       PRES   REMARKS
CLARKSVILLE      N/A     84  72  65 SE5         N/A
TEXARKANA        N/A     81  77  89 CALM        N/A
LINDEN           N/A     84  77  79 CALM        N/A  HX  94
CADDO LAKE       N/A     81  77  89 CALM        N/A
GILMER           N/A     84  75  74 S1          N/A  HX  92
HENDERSON        N/A     82  73  74 E2          N/A
LUFKIN           N/A     82  77  83 MISG        N/A  HX  91
N SABINE NF      N/A     82  77  83 MISG        N/A  HX  91
S SABINE NF      N/A     81  79  94 CALM        N/A
$$

SUPPLEMENTAL OBSERVATIONS ARE A COLLECTION OF AUTOMATED INSTRUMENTS
THAT ARE MAINTAINED BY A VARIETY OF FEDERAL AND STATE AGENCIES.
CERTAIN ELEMENTS...SUCH AS HUMIDITY VALUES AND SUSTAINED WIND
SPEEDS...MAY BE APPROXIMATED.





USA.gov is the U.S. government's official web portal to all federal, state and local government web resources and services.